Location: Oakhurst
(33.6448°N, 111.9543°W)
Time: 05:44:53
(UTC+00:00)

DUCHIFAT 1 - Pass Details

Date: 06 August 2021
Orbit: 585 x 602 km, 98.0° (Epoch: 23 September)

Event Time Altitude Azimuth Distance (km) Brightness Sun altitude
Rises 09:47:12 0° 2° (N) 2,849 ? -30.6°
Reaches altitude 10° 09:49:28 10° 355° (N) 1,945 ? -30.3°
Enters shadow 09:51:04 21° 343° (NNW) 1,367 ? -30.1°
